Regional Weather Roundup
Issued by NWS

Home | Current Version | Previous Version | Text Only | Print | Product List | Glossary Off
Versions: 1 2 3 4 5 6 7 8 9 10 11 12 13 14 15 16 17 18 19 20 21 22 23 24 25 26 27 28 29 30 31 32 33 34 35 36 37 38 39 40 41 42 43 44 45 46 47 48 49 50

000
ASUS43 KBIS 240310
RWRND

NORTH DAKOTA REGIONAL WEATHER ROUNDUP
NATIONAL WEATHER SERVICE BISMARCK ND
1000 PM CDT THU MAR 23 2017

NOTE: "FAIR" INDICATES FEW OR NO CLOUDS BELOW 12,000 FEET WITH NO
SIGNIFICANT WEATHER AND/OR OBSTRUCTIONS TO VISIBILITY.


NDZ001>003-009>011-017-240400-
NORTHWEST NORTH DAKOTA

CITY           SKY/WX    TMP DP  RH WIND       PRES   REMARKS
WILLISTON      CLOUDY    42  36  79 N8        29.90R
MINOT          FAIR      31  28  89 NW6       29.90R
MINOT AFB      CLEAR     30  28  93 NW5       29.90R
$$

NDZ018>021-031>035-040>046-240400-
SOUTHWEST NORTH DAKOTA

CITY           SKY/WX    TMP DP  RH WIND       PRES   REMARKS
BISMARCK       MOCLDY    40  37  89 NW8       29.89R
DICKINSON      MOCLDY    42  38  85 S12       29.88R
GARRISON         N/A     34  31  88 N5        29.90R
HETTINGER ARPT CLOUDY    38  37  97 NW6       29.93R
$$

NDZ004>008-012>016-024-026-027-054-240400-
NORTHEAST NORTH DAKOTA

CITY           SKY/WX    TMP DP  RH WIND       PRES   REMARKS
GRAND FORKS    CLOUDY    35  35 100 SW3       29.86S
GRND FRKS AFB  CLOUDY    34  34 100 N5        29.86S
DEVILS LAKE    FAIR      32  31  96 W6        29.89R
$$

NDZ022-023-025-028>030-036>039-047>053-240400-
SOUTHEAST NORTH DAKOTA

CITY           SKY/WX    TMP DP  RH WIND       PRES   REMARKS
FARGO          LGT RAIN  36  34  92 NE3       29.85R FOG
JAMESTOWN      CLOUDY    34  34 100 N7        29.85R FOG
$$





USA.gov is the U.S. government's official web portal to all federal, state and local government web resources and services.